ONEWEB-0238 (48784 NORAD) Tracking and Keplerian Element Data

This shows tracking and keplerian element data for the satellite.

Feedback or suggestion? Click here.




ElementValue
Catalog48784
NameONEWEB-0238
Epoch Orbit188
Epoch Day170.58334491
Epoch Year2021
RAAN268.8561
Inclination87.4085
Eccentricity0.0009602
Argument of Perigee180.4354
Mean Anonmoly53.4464
Mean Motion15.37272923
Decay Rate-0.00877745
L11 48784U 21045T 21170.58334491 -.00877745 00000-0 -26099-1 0 9998
L22 48784 87.4085 268.8561 0009602 180.4354 53.4464 15.37272923 1887

Live tracking and technical data element details for ONEWEB-0238 (NORAD 48784). ONEWEB-0238 can be tracked NOW for your location showing map with azimuth and elevation plus other details from your city location.

Track the satellite on the map from your city or location and see movement details for azimuth, elevation, latitude, longitude, range, height, and movement on the map or in text.







IsCatalogInMostPopularTable: catalog: 48784, numindb: 6
Update: records affected: 1



GetName: 48784 ONEWEB-0238

Hit Count: updated at: Mon, 21 Jun 2021 03:56:05 GMT